EHI
64 64 64 69 76 84 88 87 86 87 87 87 90 92 89 81 71 63 59 54 50 47 45 46 50 51 47 42 37 30 23 16 11 7 5 4 4 3 2 2 2 2 2
62 61 63 67 73 78 79 77 77 81 83 84 87 89 84 74 64 55 47 42 38 36 35 38 44 45 40 36 31 26 20 14 9 7 4 2 2 2 1 1 1 1 1
51 52 55 59 63 66 67 65 67 72 75 76 80 81 75 64 52 40 30 24 22 20 19 22 27 29 27 22 19 15 10 7 6 5 3 1 0 0 0 0 0 0 0
35 37 40 43 45 49 53 56 59 63 64 66 69 69 63 51 38 26 17 13 12 10 9 10 13 14 13 10 8 5 3 1 2 2 1 0 0 0 0 0 0 0 0
20 22 24 26 28 32 37 43 46 49 51 52 53 53 47 36 24 16 11 8 6 6 5 5 6 6 5 3 2 1 0 0 0 0 0 0 0 0 0 0 0 0 0
11 11 13 15 17 20 23 27 31 33 35 36 36 35 29 22 15 10 6 3 2 2 2 2 2 1 1 0 0 0 0 0 0 0 0 0 0 0 0 0 0 0 0
8 8 9 10 11 13 13 15 18 20 21 21 22 21 17 13 10 6 3 0 0 0 0 0 0 0 0 0 0 0 0 0 0 0 0 0 0 0 0 0 0 0 0
7 8 9 9 9 9 10 11 11 13 14 13 13 11 9 6 4 2 1 0 0 0 0 0 0 0 0 0 0 0 0 0 0 0 0 0 0 0 0 0 0 0 0
5 5 6 6 6 7 8 9 8 8 8 8 6 4 3 2 1 0 0 0 0 0 0 0 0 0 0 0 0 0 0 0 0 0 0 0 0 0 0 0 0 0 0
1 1 2 2 2 3 4 4 4 4 3 2 1 0 0 0 0 0 0 0 0 0 0 0 0 0 0 0 0 0 0 0 0 0 0 0 0 0 0 0 0 0 0
0 0 0 0 0 1 1 1 1 1 0 0 0 0 0 0 0 0 0 0 0 0 0 0 0 0 0 0 0 0 0 0 0 0 0 0 0 0 0 0 0 0 0
0 0 0 0 0 0 0 0 0 0 0 0 0 0 0 0 0 0 0 0 0 0 0 0 0 0 0 0 0 0 0 0 0 0 0 0 0 0 0 0 0 0 0
0 0 0 0 0 0 0 0 0 0 0 0 0 0 0 0 0 0 0 0 0 0 0 0 0 0 0 0 0 0 0 0 0 0 0 0 0 0 0 0 0 0 0
0 0 0 0 0 0 0 0 0 0 0 0 0 0 0 0 0 0 0 0 0 0 0 0 0 0 0 0 0 0 0 0 0 0 0 0 0 0 0 0 0 0 0
0 0 0 0 0 0 0 0 0 0 0 0 0 0 0 0 0 0 0 0 0 0 0 0 0 0 0 0 0 0 0 0 0 0 0 0 0 0 0 0 0 0 0
0 0 0 0 0 0 0 0 0 0 0 0 0 0 0 0 0 0 0 0 0 0 0 0 0 0 0 0 0 0 0 0 0 0 0 0 0 0 0 0 0 0 0
0 0 0 0 0 0 0 0 0 0 0 0 0 0 0 0 0 0 0 0 0 0 0 0 0 0 0 0 0 0 0 0 0 0 0 0 0 0 0 0 0 0 0
0 0 0 0 0 0 0 0 0 0 0 0 0 0 0 0 0 0 0 0 0 0 0 0 0 0 0 0 0 0 0 0 0 0 0 0 0 0 0 0 0 0 0
0 0 0 0 0 0 0 0 0 0 0 0 0 0 0 0 0 0 0 0 0 0 0 0 0 0 0 0 0 0 0 0 0 0 0 0 0 0 0 0 0 0 0
0 0 0 0 0 0 0 0 0 0 0 0 0 0 0 0 0 0 0 0 0 0 0 0 0 0 0 0 0 0 0 0 0 0 0 0 0 0 0 0 0 0 0
0 0 0 0 0 0 0 0 0 0 0 0 0 0 0 0 0 0 0 0 0 0 0 0 0 0 0 0 0 0 0 0 0 0 0 0 0 0 0 0 0 0 0
0 0 0 0 0 0 0 0 0 0 0 0 0 0 0 0 0 0 0 0 0 0 0 0 0 0 0 0 0 0 0 0 0 0 0 0 0 0 0 0 0 0 0
0 0 0 0 0 0 0 0 0 0 0 0 0 0 0 0 0 0 0 0 0 0 0 0 0 0 0 0 0 0 0 0 0 0 0 0 0 0 0 0 0 0 0
0 0 0 0 0 0 0 0 0 0 0 0 0 0 0 0 0 0 0 0 0 0 0 0 0 0 0 0 0 0 0 0 0 0 0 0 0 0 0 0 0 0 0
0 0 0 0 0 0 0 0 0 0 0 0 0 0 0 0 0 0 0 0 0 0 0 0 0 0 0 0 0 0 0 0 0 0 0 0 0 0 0 0 0 0 0
0 0 0 0 0 0 0 0 0 0 0 0 0 0 0 0 0 0 0 0 0 0 0 0 0 0 0 0 0 0 0 0 0 0 0 0 0 0 0 0 0 0 0
Wind_Speed
10 9 9 8 8 8 7 6 7 7 6 5 6 5 4 4 3 4 5 5 4 4 3 1 2 1 1 1 1 1 1 1 2 1 2 2 2 2 2 2 2 3 3
11 11 11 7 6 7 6 5 5 6 5 4 4 4 5 4 5 5 6 6 6 5 3 3 3 2 2 3 3 2 1 1 2 1 1 1 1 2 2 2 3 4 3
12 12 12 11 10 6 5 3 4 4 4 3 3 5 5 4 4 5 5 7 8 8 7 7 5 5 5 4 4 4 3 1 2 3 1 0 1 1 1 2 3 3 2
12 12 12 11 11 9 7 6 5 4 4 4 4 6 5 5 5 6 6 9 10 10 9 8 7 7 6 6 6 6 4 3 2 2 2 2 2 1 1 1 1 1 1
12 12 12 11 11 10 9 8 8 7 6 5 5 6 7 7 7 8 10 9 9 10 10 10 9 9 8 8 8 8 7 5 4 3 2 2 2 2 1 1 1 1 1
13 12 12 11 11 12 11 9 10 10 9 9 8 8 11 11 10 10 10 8 7 9 11 11 10 9 8 9 8 8 10 7 7 5 5 3 3 3 2 2 2 2 2
12 12 13 13 13 13 12 11 12 12 12 12 11 11 12 12 11 10 10 9 7 8 10 10 9 9 8 8 8 9 8 8 7 6 5 4 3 2 2 2 2 3 2
12 13 12 12 12 13 12 12 13 13 13 13 13 13 12 10 10 11 10 9 8 8 9 10 9 9 9 8 7 7 7 6 6 7 5 3 3 3 3 2 3 3 3
12 12 12 12 12 12 13 13 13 14 14 14 14 14 13 13 13 11 10 9 8 8 9 9 9 8 8 7 6 6 6 5 5 5 5 4 3 4 4 3 3 2 4
11 12 11 12 11 12 12 14 14 15 14 13 12 12 13 13 12 11 11 10 9 9 9 8 8 7 7 6 6 5 5 5 4 3 4 4 4 4 4 3 3 3 3
11 11 11 11 11 12 12 13 13 14 13 13 13 13 12 12 12 11 10 9 8 7 7 6 6 6 6 5 5 5 5 5 5 5 5 5 4 4 4 4 4 3 3
12 12 12 11 11 12 12 12 12 13 12 12 12 12 12 11 11 10 9 7 6 6 6 5 5 6 6 5 6 6 6 6 5 5 5 5 5 5 4 4 4 4 3
12 11 11 11 11 11 11 11 11 11 11 11 11 11 10 10 9 8 7 6 6 6 5 5 6 6 6 7 6 6 5 5 4 4 4 4 5 5 5 5 5 4 5
11 11 10 10 10 10 10 10 10 10 10 10 11 10 9 8 8 7 6 5 5 5 5 5 6 7 9 9 9 7 5 4 4 3 3 3 4 4 5 5 5 5 6
12 11 10 9 9 9 9 9 9 8 8 9 10 9 8 7 7 6 5 4 4 5 4 5 6 6 7 8 9 8 6 5 4 4 3 3 3 2 3 4 5 6 5
11 11 10 10 9 8 8 8 8 7 7 8 9 8 7 7 6 5 5 4 5 5 5 5 7 8 7 7 10 9 7 6 4 4 4 3 3 3 4 7 8 8 7
11 10 9 9 7 6 7 7 7 6 6 7 7 7 6 6 5 5 5 5 4 4 4 5 6 7 6 7 9 11 7 6 4 3 4 5 6 6 7 9 10 8 9
11 10 8 8 7 6 6 6 6 6 7 6 7 6 6 6 5 5 5 4 3 3 3 4 5 5 5 6 8 13 8 4 3 3 3 4 4 6 7 8 8 7 6
10 9 8 7 6 6 5 6 5 6 6 6 6 6 5 5 5 5 4 3 3 3 3 4 4 4 4 4 8 11 6 4 4 4 3 4 4 5 7 7 8 8 6
9 8 7 7 6 5 5 5 6 5 6 6 5 5 4 5 5 4 3 2 2 3 3 3 3 3 3 2 6 9 6 6 5 4 1 3 3 6 7 6 7 8 7
10 8 7 6 5 5 5 5 5 5 5 5 4 3 3 2 3 3 2 2 2 2 1 1 2 2 3 1 2 5 4 6 7 6 4 2 4 8 9 7 6 8 8
9 8 7 6 4 4 4 5 4 4 4 3 3 2 2 2 4 2 1 2 2 1 1 1 1 2 3 1 1 5 6 6 6 5 5 5 10 12 13 9 9 12 11
9 7 7 6 5 4 4 4 3 3 3 2 2 2 2 2 2 1 1 1 1 2 2 2 2 2 2 1 2 6 9 8 5 5 10 13 14 13 9 7 10 9 5
8 7 7 7 6 4 4 3 3 2 2 1 1 0 0 1 2 2 3 4 5 5 4 4 4 3 3 5 6 6 7 8 7 7 11 14 12 9 9 8 5 3 3
7 6 6 6 6 5 4 3 2 1 1 0 1 1 0 1 2 3 4 5 5 4 4 5 5 5 4 4 5 5 6 7 7 9 8 5 4 3 3 4 4 4 4
7 7 6 6 6 5 5 4 3 1 0 1 1 1 0 1 1 3 4 7 5 4 4 3 3 3 3 6 9 10 11 13 10 7 6 5 4 5 5 5 5 4 5
Wind_Direction
61 59 57 67 92 97 105 119 132 138 147 156 165 162 151 133 104 84 82 83 74 72 77 69 78 65 72 38 351 336 4 10 342 319 303 319 358 22 26 26 31 56 60
55 53 59 52 73 93 106 113 122 138 151 159 158 148 135 114 101 87 72 64 58 47 58 47 48 48 50 51 36 28 70 36 11 339 308 302 322 7 19 33 32 35 34
51 47 49 43 42 52 75 115 130 130 134 135 136 126 111 112 105 89 71 58 55 48 42 44 47 44 47 50 41 30 40 52 46 36 15 303 285 341 17 34 48 38 26
50 45 42 36 35 33 45 54 71 95 114 126 132 135 135 125 103 89 78 64 56 52 49 48 49 50 51 50 44 40 39 42 40 39 36 39 17 337 323 5 35 49 44
56 47 43 41 37 33 38 45 56 63 70 77 96 112 106 97 93 90 83 72 62 56 57 58 55 53 53 51 50 49 45 44 40 32 28 27 29 14 347 325 345 349 10
57 49 43 43 43 41 40 45 57 58 60 69 77 93 100 101 98 91 87 77 70 61 58 60 60 58 57 53 52 55 54 47 46 43 41 37 30 17 10 343 337 335 317
61 51 44 42 44 45 46 50 56 58 59 65 68 81 90 93 90 91 89 86 77 69 61 62 60 59 59 57 54 57 53 47 48 47 40 34 33 20 4 355 342 332 317
68 61 54 49 49 50 52 60 64 63 63 66 68 70 75 80 82 82 86 83 80 77 72 68 65 61 59 59 56 57 53 44 41 44 37 23 23 12 13 2 350 338 331
74 69 62 58 56 55 57 65 71 71 68 69 72 72 75 81 85 83 82 82 81 82 74 72 69 62 59 57 60 62 53 47 39 36 32 18 12 11 3 356 352 346 336
80 74 69 67 65 65 68 70 71 73 73 73 75 79 76 77 81 83 82 81 79 77 77 72 70 65 58 52 52 58 48 49 36 34 35 20 11 4 352 348 345 347 341
88 82 77 73 72 71 70 72 74 76 76 77 79 80 79 80 80 79 80 80 79 79 79 77 76 71 62 53 50 55 51 42 33 27 26 17 14 6 345 350 347 347 353
94 89 84 79 76 74 74 75 76 78 79 80 81 81 82 81 82 83 82 83 84 83 83 79 74 70 60 44 40 40 41 35 30 25 17 9 8 2 359 350 342 341 330
100 94 87 83 81 80 80 80 81 85 87 88 87 85 84 85 86 86 86 84 80 75 69 65 63 62 55 41 29 31 33 30 26 20 15 8 9 8 1 339 346 340 341
106 100 95 90 87 85 85 86 87 90 92 92 90 88 88 88 87 85 83 82 82 80 70 64 60 62 51 35 20 10 20 23 17 12 8 9 18 16 350 338 349 341 330
115 111 106 100 95 91 90 89 90 91 94 96 95 94 95 93 90 85 80 76 72 75 66 64 63 65 61 33 16 355 2 360 0 4 0 357 31 23 316 334 336 328 325
123 118 113 108 101 98 97 95 95 94 93 95 97 98 98 97 96 95 87 75 66 61 57 60 65 59 52 30 16 2 342 334 348 1 351 340 79 353 314 309 301 291 294
126 122 117 112 107 103 102 102 98 99 98 99 101 100 98 95 91 87 83 75 70 64 58 58 74 82 58 20 3 355 325 314 336 354 350 353 21 22 358 335 320 303 282
126 124 118 113 108 103 102 103 105 108 106 103 101 100 95 89 83 76 71 66 62 61 66 61 75 92 66 16 358 345 319 315 335 348 1 358 25 25 355 331 325 322 321
122 119 117 115 113 110 110 110 107 105 102 96 90 86 84 81 77 71 65 54 47 51 66 68 71 90 94 19 359 350 324 346 352 354 15 5 17 18 350 330 325 324 326
114 115 114 114 114 113 112 106 102 97 95 91 88 83 74 70 65 58 50 45 41 44 51 68 71 72 80 42 357 351 342 352 347 344 6 69 6 341 337 328 319 318 327
116 115 112 110 109 106 103 100 98 95 95 94 90 85 82 86 84 67 41 23 38 45 30 63 99 103 95 128 319 339 342 347 338 337 343 31 342 329 322 313 289 298 313
121 123 118 115 113 115 114 107 104 102 99 95 89 80 58 42 72 70 44 23 7 351 8 30 61 116 132 101 311 308 311 309 315 325 338 338 324 317 310 301 287 301 307
129 131 129 127 127 122 117 112 111 108 99 86 75 66 52 49 44 14 4 10 9 6 11 33 43 56 79 95 328 318 313 314 307 324 328 315 305 304 299 291 295 299 295
136 139 139 135 129 125 119 120 121 107 110 113 113 154 122 96 72 19 21 36 27 17 10 20 27 36 54 35 8 346 339 345 346 344 322 309 297 285 280 296 305 296 307
144 146 141 137 139 142 139 140 137 119 78 8 280 272 168 100 92 76 48 45 63 49 19 12 8 14 20 12 339 328 329 333 331 325 307 308 330 343 347 341 338 336 341
142 142 144 144 144 147 149 153 155 149 112 292 302 299 215 145 133 137 115 61 86 104 75 44 8 11 13 330 327 326 320 314 315 316 310 333 350 354 355 351 349 348 350